When you browse on this site, cookies collect data to enhance your experience and personalize the content and advertising you see.
Visit our Privacy Policy to learn more. By continuing to use the site, you agree to this use of cookies and data.
  • En España
  • Lista de países
  • Para 7 días
  • Temperatura del agua
  • Mapa Satelital
  • El tiempo en el mapa
  • Informadores
  • user-avatar
    Iniciar sesión

    Tiempo cada hora La-Plata

    Hoy, 24 Julio, Miércoles

    Tiempo Temperatura Precipitaciones Viento Presión Humedad
    00:00 +8°C° 0 mm 3 mps 769 mmHg 64%
    01:00 +8°C° 0 mm 3 mps 769 mmHg 64%
    02:00 +8°C° 0 mm 3 mps 769 mmHg 64%
    03:00 +7°C° 0 mm 3 mps 769 mmHg 65%
    04:00 +5°C° 0 mm 3 mps 769 mmHg 67%
    05:00 +5°C° 0 mm 3 mps 769 mmHg 68%
    06:00 +5°C° 0 mm 3 mps 770 mmHg 67%
    07:00 +5°C° 0 mm 3 mps 770 mmHg 66%
    08:00 +5°C° 0 mm 3 mps 771 mmHg 65%
    09:00 +7°C° 0 mm 3 mps 771 mmHg 60%
    10:00 +9°C° 0 mm 3 mps 771 mmHg 56%
    11:00 +10°C° 0 mm 3 mps 772 mmHg 52%
    12:00 +10°C° 0 mm 3 mps 771 mmHg 51%
    13:00 +12°C° 0 mm 2 mps 771 mmHg 50%
    14:00 +12°C° 0 mm 2 mps 771 mmHg 50%
    15:00 +10°C° 0 mm 2 mps 770 mmHg 55%
    16:00 +9°C° 0 mm 3 mps 770 mmHg 60%
    17:00 +8°C° 0 mm 3 mps 770 mmHg 65%
    18:00 +8°C° 0 mm 3 mps 770 mmHg 71%
    19:00 +7°C° 0 mm 3 mps 771 mmHg 77%
    20:00 +5°C° 0 mm 3 mps 771 mmHg 83%
    21:00 +5°C° 0 mm 3 mps 771 mmHg 84%
    22:00 +5°C° 0 mm 3 mps 771 mmHg 85%
    23:00 +5°C° 0 mm 4 mps 771 mmHg 86%

    Mañana, 25 Julio, Jueves

    Tiempo Temperatura Precipitaciones Viento Presión Humedad
    00:00 +5°C° 0 mm 4 mps 770 mmHg 86%
    01:00 +5°C° 0 mm 4 mps 770 mmHg 87%
    02:00 +5°C° 0 mm 4 mps 770 mmHg 87%
    03:00 +5°C° 0 mm 4 mps 770 mmHg 87%
    04:00 +5°C° 0 mm 4 mps 769 mmHg 88%
    05:00 +5°C° 0 mm 4 mps 769 mmHg 88%
    06:00 +6°C° 0 mm 4 mps 769 mmHg 87%
    07:00 +6°C° 0 mm 4 mps 769 mmHg 87%
    08:00 +7°C° 0 mm 4 mps 769 mmHg 87%
    09:00 +8°C° 0 mm 5 mps 769 mmHg 83%
    10:00 +9°C° 0 mm 5 mps 768 mmHg 80%
    11:00 +10°C° 0 mm 6 mps 768 mmHg 77%
    12:00 +10°C° 0.7 mm 6 mps 767 mmHg 82%
    13:00 +9°C° 0.7 mm 6 mps 766 mmHg 86%
    14:00 +9°C° 0.7 mm 5 mps 766 mmHg 90%
    15:00 +9°C° 0.8 mm 5 mps 765 mmHg 91%
    16:00 +9°C° 0.8 mm 5 mps 765 mmHg 92%
    17:00 +9°C° 0.8 mm 5 mps 764 mmHg 93%
    18:00 +9°C° 0.7 mm 6 mps 764 mmHg 94%
    19:00 +9°C° 0.7 mm 6 mps 764 mmHg 94%
    20:00 +9°C° 0.7 mm 6 mps 763 mmHg 94%
    21:00 +9°C° 0.8 mm 6 mps 763 mmHg 94%
    22:00 +9°C° 0.8 mm 6 mps 762 mmHg 94%
    23:00 +9°C° 0.8 mm 6 mps 762 mmHg 94%

    Pasado mañana, 26 Julio, Viernes

    Tiempo Temperatura Precipitaciones Viento Presión Humedad
    00:00 +9°C° 1.1 mm 6 mps 761 mmHg 94%
    01:00 +9°C° 1.1 mm 6 mps 761 mmHg 95%
    02:00 +9°C° 1.1 mm 6 mps 760 mmHg 95%
    03:00 +9°C° 0.7 mm 6 mps 760 mmHg 94%
    04:00 +9°C° 0.7 mm 7 mps 760 mmHg 94%
    05:00 +9°C° 0.7 mm 7 mps 759 mmHg 93%
    06:00 +9°C° 0.4 mm 7 mps 760 mmHg 93%
    07:00 +9°C° 0.4 mm 7 mps 760 mmHg 93%
    08:00 +9°C° 0.4 mm 6 mps 760 mmHg 93%
    09:00 +9°C° 0.6 mm 7 mps 761 mmHg 93%
    10:00 +8°C° 0.6 mm 7 mps 761 mmHg 92%
    11:00 +8°C° 0.6 mm 7 mps 761 mmHg 92%
    12:00 +9°C° 0 mm 7 mps 762 mmHg 88%
    13:00 +10°C° 0 mm 6 mps 762 mmHg 85%
    14:00 +11°C° 0 mm 6 mps 762 mmHg 81%
    15:00 +12°C° 0 mm 5 mps 762 mmHg 80%
    16:00 +10°C° 0 mm 5 mps 763 mmHg 78%
    17:00 +11°C° 0 mm 4 mps 764 mmHg 77%
    18:00 +10°C° 0 mm 4 mps 764 mmHg 77%
    19:00 +9°C° 0 mm 3 mps 764 mmHg 77%
    20:00 +8°C° 0 mm 3 mps 765 mmHg 77%
    21:00 +8°C° 0 mm 3 mps 765 mmHg 77%
    22:00 +8°C° 0 mm 3 mps 766 mmHg 78%
    23:00 +8°C° 0 mm 3 mps 766 mmHg 79%

    27 Julio, Sábado

    Tiempo Temperatura Precipitaciones Viento Presión Humedad
    00:00 +7°C° 0 mm 3 mps 766 mmHg 79%
    01:00 +7°C° 0 mm 3 mps 766 mmHg 79%
    02:00 +7°C° 0 mm 3 mps 766 mmHg 80%
    03:00 +7°C° 0 mm 2 mps 767 mmHg 80%
    04:00 +7°C° 0 mm 2 mps 767 mmHg 81%
    05:00 +6°C° 0 mm 2 mps 767 mmHg 81%
    06:00 +8°C° 0 mm 1 mps 767 mmHg 81%
    07:00 +8°C° 0 mm 1 mps 767 mmHg 80%
    08:00 +7°C° 0 mm 0 mps 768 mmHg 79%
    09:00 +9°C° 0 mm 0 mps 768 mmHg 73%
    10:00 +11°C° 0 mm 0 mps 768 mmHg 67%
    11:00 +12°C° 0 mm 0 mps 769 mmHg 61%
    12:00 +14°C° 0 mm 1 mps 768 mmHg 58%
    13:00 +15°C° 0 mm 1 mps 768 mmHg 56%
    14:00 +15°C° 0 mm 1 mps 767 mmHg 54%
    15:00 +14°C° 0 mm 1 mps 768 mmHg 60%
    16:00 +13°C° 0 mm 2 mps 768 mmHg 65%
    17:00 +10°C° 0 mm 2 mps 768 mmHg 71%
    18:00 +10°C° 0 mm 2 mps 768 mmHg 73%
    19:00 +9°C° 0 mm 2 mps 768 mmHg 76%
    20:00 +8°C° 0 mm 3 mps 768 mmHg 78%
    21:00 +8°C° 0 mm 3 mps 768 mmHg 81%
    22:00 +8°C° 0 mm 3 mps 768 mmHg 83%
    23:00 +8°C° 0 mm 3 mps 768 mmHg 86%

    28 Julio, Domingo

    Tiempo Temperatura Precipitaciones Viento Presión Humedad
    00:00 +8°C° 0 mm 3 mps 768 mmHg 87%
    01:00 +8°C° 0 mm 3 mps 768 mmHg 89%
    02:00 +8°C° 0 mm 3 mps 768 mmHg 91%
    03:00 +8°C° 0 mm 3 mps 768 mmHg 91%
    04:00 +8°C° 0 mm 3 mps 768 mmHg 92%
    05:00 +8°C° 0 mm 3 mps 768 mmHg 92%
    06:00 +8°C° 0 mm 3 mps 768 mmHg 91%
    07:00 +9°C° 0 mm 3 mps 768 mmHg 90%
    08:00 +9°C° 0 mm 3 mps 768 mmHg 88%
    09:00 +10°C° 0 mm 3 mps 768 mmHg 83%
    10:00 +11°C° 0 mm 3 mps 768 mmHg 78%
    11:00 +12°C° 0 mm 3 mps 768 mmHg 73%
    12:00 +13°C° 0 mm 3 mps 767 mmHg 73%
    13:00 +13°C° 0 mm 3 mps 766 mmHg 72%
    14:00 +13°C° 0 mm 3 mps 766 mmHg 72%
    15:00 +12°C° 0 mm 3 mps 766 mmHg 76%
    16:00 +11°C° 0 mm 4 mps 765 mmHg 81%
    17:00 +10°C° 0 mm 4 mps 765 mmHg 85%
    18:00 +10°C° 0 mm 4 mps 765 mmHg 87%
    19:00 +10°C° 0 mm 4 mps 765 mmHg 89%
    20:00 +8°C° 0 mm 4 mps 765 mmHg 91%
    21:00 +8°C° 0 mm 4 mps 765 mmHg 91%
    22:00 +8°C° 0 mm 4 mps 765 mmHg 91%
    23:00 +9°C° 0 mm 3 mps 764 mmHg 91%

    29 Julio, Lunes

    Tiempo Temperatura Precipitaciones Viento Presión Humedad
    00:00 +9°C° 0 mm 3 mps 764 mmHg 92%
    01:00 +9°C° 0 mm 2 mps 764 mmHg 93%
    02:00 +9°C° 0 mm 2 mps 764 mmHg 94%
    03:00 +10°C° 0 mm 1 mps 764 mmHg 93%
    04:00 +11°C° 0 mm 1 mps 763 mmHg 93%
    05:00 +10°C° 0 mm 0 mps 763 mmHg 92%
    06:00 +10°C° 0 mm 0 mps 763 mmHg 92%
    07:00 +11°C° 0 mm 1 mps 763 mmHg 92%
    08:00 +11°C° 0 mm 1 mps 763 mmHg 92%
    09:00 +13°C° 0 mm 1 mps 764 mmHg 84%
    10:00 +14°C° 0 mm 1 mps 764 mmHg 77%
    11:00 +15°C° 0 mm 1 mps 764 mmHg 69%
    12:00 +15°C° 0 mm 1 mps 763 mmHg 69%
    13:00 +15°C° 0 mm 1 mps 763 mmHg 68%
    14:00 +16°C° 0 mm 2 mps 762 mmHg 68%
    15:00 +15°C° 0 mm 1 mps 762 mmHg 71%
    16:00 +14°C° 0 mm 1 mps 762 mmHg 75%
    17:00 +12°C° 0 mm 0 mps 762 mmHg 78%
    18:00 +11°C° 0 mm 0 mps 762 mmHg 80%
    19:00 +10°C° 0 mm 0 mps 762 mmHg 82%
    20:00 +10°C° 0 mm 0 mps 763 mmHg 84%
    21:00 +9°C° 0 mm 0 mps 763 mmHg 85%
    22:00 +9°C° 0 mm 0 mps 763 mmHg 85%
    23:00 +9°C° 0 mm 0 mps 763 mmHg 86%
    Mostrar más